Location: Julian California
(33.0790°N, 116.6010°W)
Time: 16:58:56
(UTC-07:00)

Cosmos 1697 Rocket - Pass Details

Date: 24 March 2019
Orbit: 834 x 842 km, 71.0° (Epoch: 25 April)

Event Time Altitude Azimuth Distance (km) Brightness Sun altitude
Rises 04:44:29 0° 351° (N) 3,387 6.0 -25.6°
Reaches altitude 10° 04:47:17 10° 3° (N) 2,448 5.4 -25.0°
Maximum altitude 04:52:03 28° 62° (ENE) 1,519 4.7 -24.1°
Drops below altitude 10° 04:56:48 10° 120° (ESE) 2,434 5.6 -23.1°
Sets 04:59:33 0° 132° (SE) 3,364 6.2 -22.6°
